Time,TemperatureF,DewpointF,PressureIn,WindDirection,WindDirectionDegrees,WindSpeedMPH,WindSpeedGustMPH,Humidity,HourlyPrecipIn,Conditions,Clouds,dailyrainin,SolarRadiationWatts/m^2,SoftwareType,DateUTC
2013-02-02 00:11:00,5.1,3.0,30.23,South,189,0.0,1.0,89,0.00,,,0.00,0,weatherlink.com 1.10,2013-02-02 06:11:00,
2013-02-02 00:26:00,5.1,3.0,30.23,South,189,0.0,0.0,89,0.00,,,0.00,0,weatherlink.com 1.10,2013-02-02 06:26:00,
2013-02-02 00:41:00,5.2,3.0,30.22,South,189,0.0,0.0,89,0.00,,,0.00,0,weatherlink.com 1.10,2013-02-02 06:41:00,
2013-02-02 00:56:00,5.3,3.0,30.21,South,189,0.0,0.0,89,0.00,,,0.00,0,weatherlink.com 1.10,2013-02-02 06:56:00,
2013-02-02 01:12:00,5.3,3.0,30.21,South,189,0.0,0.0,89,0.00,,,0.00,0,weatherlink.com 1.10,2013-02-02 07:12:00,
2013-02-02 01:27:00,5.4,3.0,30.21,South,189,0.0,0.0,89,0.00,,,0.00,0,weatherlink.com 1.10,2013-02-02 07:27:00,
2013-02-02 01:42:00,5.5,3.0,30.21,South,189,0.0,0.0,89,0.00,,,0.00,0,weatherlink.com 1.10,2013-02-02 07:42:00,
2013-02-02 01:57:00,5.6,3.0,30.20,South,189,0.0,0.0,89,0.00,,,0.00,0,weatherlink.com 1.10,2013-02-02 07:57:00,
2013-02-02 02:12:00,5.6,3.0,30.20,South,189,0.0,0.0,89,0.00,,,0.00,0,weatherlink.com 1.10,2013-02-02 08:12:00,
2013-02-02 02:27:00,5.5,3.0,30.20,South,179,0.0,0.0,89,0.00,,,0.00,0,weatherlink.com 1.10,2013-02-02 08:27:00,
2013-02-02 02:42:00,5.5,3.0,30.19,South,179,0.0,0.0,89,0.00,,,0.00,0,weatherlink.com 1.10,2013-02-02 08:42:00,
2013-02-02 02:57:00,5.5,3.0,30.19,South,179,0.0,0.0,89,0.00,,,0.00,0,weatherlink.com 1.10,2013-02-02 08:57:00,
2013-02-02 03:12:00,5.5,3.0,30.18,SSE,152,0.0,1.0,89,0.00,,,0.00,0,weatherlink.com 1.10,2013-02-02 09:12:00,
2013-02-02 03:27:00,5.6,3.0,30.18,SSE,152,0.0,0.0,89,0.00,,,0.00,0,weatherlink.com 1.10,2013-02-02 09:27:00,
2013-02-02 03:42:00,5.6,3.0,30.17,SSE,152,0.0,0.0,89,0.00,,,0.00,0,weatherlink.com 1.10,2013-02-02 09:42:00,
2013-02-02 03:57:00,5.7,3.0,30.17,SSE,152,0.0,1.0,89,0.00,,,0.00,0,weatherlink.com 1.10,2013-02-02 09:57:00,
2013-02-02 04:12:00,5.8,3.0,30.17,NE,46,0.0,2.0,89,0.00,,,0.00,0,weatherlink.com 1.10,2013-02-02 10:12:00,
2013-02-02 04:27:00,5.9,3.0,30.16,NNE,27,1.0,2.0,89,0.00,,,0.00,0,weatherlink.com 1.10,2013-02-02 10:27:00,
2013-02-02 04:42:00,5.8,3.0,30.16,NNE,24,1.0,3.0,89,0.00,,,0.00,0,weatherlink.com 1.10,2013-02-02 10:42:00,
2013-02-02 04:57:00,5.8,3.0,30.16,NNE,15,0.0,4.0,89,0.00,,,0.00,0,weatherlink.com 1.10,2013-02-02 10:57:00,
2013-02-02 05:12:00,5.8,3.0,30.17,North,9,2.0,4.0,89,0.00,,,0.00,0,weatherlink.com 1.10,2013-02-02 11:12:00,
2013-02-02 05:27:00,5.8,3.0,30.17,North,5,3.0,5.0,89,0.00,,,0.00,0,weatherlink.com 1.10,2013-02-02 11:27:00,
2013-02-02 05:42:00,5.8,3.0,30.16,North,5,3.0,5.0,88,0.00,,,0.00,0,weatherlink.com 1.10,2013-02-02 11:42:00,
2013-02-02 05:57:00,5.8,3.0,30.17,NNE,24,4.0,6.0,88,0.00,,,0.00,0,weatherlink.com 1.10,2013-02-02 11:57:00,
2013-02-02 06:12:00,5.7,3.0,30.17,North,9,3.0,6.0,88,0.00,,,0.00,0,weatherlink.com 1.10,2013-02-02 12:12:00,
2013-02-02 06:27:00,5.5,3.0,30.17,NNE,13,6.0,9.0,88,0.00,,,0.00,0,weatherlink.com 1.10,2013-02-02 12:27:00,
2013-02-02 06:42:00,5.4,2.0,30.18,NNE,24,5.0,8.0,87,0.00,,,0.00,0,weatherlink.com 1.10,2013-02-02 12:42:00,
2013-02-02 06:57:00,5.2,2.0,30.18,NNE,16,4.0,6.0,87,0.00,,,0.00,0,weatherlink.com 1.10,2013-02-02 12:57:00,
2013-02-02 07:12:00,5.0,2.0,30.19,North,5,5.0,8.0,86,0.00,,,0.00,0,weatherlink.com 1.10,2013-02-02 13:12:00,
2013-02-02 07:27:00,4.9,2.0,30.19,NNE,26,2.0,8.0,86,0.00,,,0.00,5,weatherlink.com 1.10,2013-02-02 13:27:00,
2013-02-02 07:43:00,4.8,2.0,30.20,North,9,4.0,7.0,86,0.00,,,0.00,14,weatherlink.com 1.10,2013-02-02 13:43:00,
2013-02-02 07:58:00,4.9,1.0,30.20,North,11,7.0,7.0,85,0.00,,,0.00,21,weatherlink.com 1.10,2013-02-02 13:58:00,
2013-02-02 08:13:00,4.9,1.0,30.20,North,11,5.0,7.0,85,0.00,,,0.00,33,weatherlink.com 1.10,2013-02-02 14:13:00,
2013-02-02 08:28:00,4.9,1.0,30.21,North,355,7.0,9.0,83,0.00,,,0.00,44,weatherlink.com 1.10,2013-02-02 14:28:00,
2013-02-02 08:43:00,5.0,1.0,30.21,NNW,348,4.0,8.0,83,0.00,,,0.00,53,weatherlink.com 1.10,2013-02-02 14:43:00,
2013-02-02 08:58:00,5.2,1.0,30.21,NNW,344,4.0,8.0,84,0.00,,,0.00,63,weatherlink.com 1.10,2013-02-02 14:58:00,
2013-02-02 09:13:00,5.2,1.0,30.21,North,5,7.0,11.0,83,0.00,,,0.00,84,weatherlink.com 1.10,2013-02-02 15:13:00,
2013-02-02 09:28:00,5.2,1.0,30.21,NNW,342,6.0,9.0,84,0.00,,,0.00,95,weatherlink.com 1.10,2013-02-02 15:28:00,
2013-02-02 09:43:00,5.3,1.0,30.21,North,360,8.0,10.0,83,0.00,,,0.00,114,weatherlink.com 1.10,2013-02-02 15:43:00,
2013-02-02 09:58:00,5.3,1.0,30.21,North,355,7.0,10.0,83,0.00,,,0.00,230,weatherlink.com 1.10,2013-02-02 15:58:00,
2013-02-02 10:13:00,5.3,1.0,30.21,North,5,7.0,10.0,83,0.00,,,0.00,232,weatherlink.com 1.10,2013-02-02 16:13:00,
2013-02-02 10:28:00,5.1,1.0,30.22,North,350,5.0,9.0,82,0.00,,,0.00,123,weatherlink.com 1.10,2013-02-02 16:28:00,
2013-02-02 10:43:00,4.7,1.0,30.22,North,355,6.0,9.0,83,0.00,,,0.00,190,weatherlink.com 1.10,2013-02-02 16:43:00,
2013-02-02 10:59:00,4.9,1.0,30.22,NNW,342,5.0,7.0,83,0.00,,,0.00,88,weatherlink.com 1.10,2013-02-02 16:59:00,
2013-02-02 11:14:00,5.1,1.0,30.21,NNW,344,4.0,9.0,82,0.00,,,0.00,98,weatherlink.com 1.10,2013-02-02 17:14:00,
2013-02-02 11:29:00,5.1,1.0,30.21,NNW,341,4.0,10.0,81,0.00,,,0.00,116,weatherlink.com 1.10,2013-02-02 17:29:00,
2013-02-02 11:44:00,5.2,0.0,30.21,North,360,6.0,8.0,80,0.00,,,0.00,107,weatherlink.com 1.10,2013-02-02 17:44:00,
2013-02-02 11:59:00,5.3,0.0,30.21,North,349,5.0,8.0,80,0.00,,,0.00,86,weatherlink.com 1.10,2013-02-02 17:59:00,
2013-02-02 12:14:00,5.4,0.0,30.21,NNW,333,4.0,9.0,79,0.00,,,0.00,90,weatherlink.com 1.10,2013-02-02 18:14:00,
2013-02-02 12:29:00,5.8,1.0,30.20,North,355,6.0,9.0,79,0.00,,,0.00,83,weatherlink.com 1.10,2013-02-02 18:29:00,
2013-02-02 12:44:00,6.0,1.0,30.20,NW,311,5.0,7.0,78,0.00,,,0.00,77,weatherlink.com 1.10,2013-02-02 18:44:00,
2013-02-02 12:59:00,6.4,1.0,30.20,NNW,336,5.0,7.0,77,0.00,,,0.00,107,weatherlink.com 1.10,2013-02-02 18:59:00,
2013-02-02 13:14:00,6.9,1.0,30.20,NW,319,4.0,6.0,77,0.00,,,0.00,91,weatherlink.com 1.10,2013-02-02 19:14:00,
2013-02-02 13:29:00,7.0,1.0,30.20,NW,307,3.0,7.0,76,0.00,,,0.00,258,weatherlink.com 1.10,2013-02-02 19:29:00,
2013-02-02 13:44:00,7.4,1.0,30.20,NW,315,4.0,7.0,75,0.00,,,0.00,436,weatherlink.com 1.10,2013-02-02 19:44:00,
2013-02-02 13:59:00,8.0,1.0,30.20,NW,315,4.0,6.0,74,0.00,,,0.00,461,weatherlink.com 1.10,2013-02-02 19:59:00,
2013-02-02 14:15:00,8.0,1.0,30.20,NNW,344,4.0,7.0,73,0.00,,,0.00,142,weatherlink.com 1.10,2013-02-02 20:15:00,
2013-02-02 14:30:00,7.8,1.0,30.20,NW,309,3.0,8.0,75,0.00,,,0.00,125,weatherlink.com 1.10,2013-02-02 20:30:00,
2013-02-02 14:45:00,7.7,1.0,30.20,WNW,289,3.0,4.0,75,0.00,,,0.00,123,weatherlink.com 1.10,2013-02-02 20:45:00,
2013-02-02 15:00:00,7.8,1.0,30.20,NW,304,2.0,4.0,75,0.00,,,0.00,125,weatherlink.com 1.10,2013-02-02 21:00:00,
2013-02-02 15:15:00,7.8,1.0,30.20,WNW,288,3.0,5.0,74,0.00,,,0.00,107,weatherlink.com 1.10,2013-02-02 21:15:00,
2013-02-02 15:30:00,7.8,1.0,30.20,NW,311,0.0,3.0,74,0.00,,,0.00,100,weatherlink.com 1.10,2013-02-02 21:30:00,
2013-02-02 15:45:00,7.4,1.0,30.20,West,276,1.0,3.0,74,0.00,,,0.00,84,weatherlink.com 1.10,2013-02-02 21:45:00,
2013-02-02 16:00:00,7.7,1.0,30.19,West,276,0.0,0.0,75,0.00,,,0.00,74,weatherlink.com 1.10,2013-02-02 22:00:00,
2013-02-02 16:15:00,7.3,1.0,30.19,West,276,0.0,3.0,74,0.00,,,0.00,65,weatherlink.com 1.10,2013-02-02 22:15:00,
2013-02-02 16:30:00,6.8,1.0,30.20,West,276,0.0,0.0,76,0.00,,,0.00,42,weatherlink.com 1.10,2013-02-02 22:30:00,
2013-02-02 16:45:00,5.2,-1.0,30.20,West,276,0.0,0.0,77,0.00,,,0.00,21,weatherlink.com 1.10,2013-02-02 22:45:00,
2013-02-02 17:00:00,4.4,-1.0,30.20,West,276,0.0,0.0,79,0.00,,,0.00,7,weatherlink.com 1.10,2013-02-02 23:00:00,
2013-02-02 17:15:00,2.2,-3.0,30.20,West,276,0.0,0.0,77,0.00,,,0.00,0,weatherlink.com 1.10,2013-02-02 23:15:00,
2013-02-02 17:31:00,0.6,-4.0,30.20,West,276,1.0,1.0,81,0.00,,,0.00,0,weatherlink.com 1.10,2013-02-02 23:31:00,
2013-02-02 17:46:00,1.2,-3.0,30.21,West,276,0.0,0.0,84,0.00,,,0.00,0,weatherlink.com 1.10,2013-02-02 23:46:00,
2013-02-02 18:01:00,1.1,-3.0,30.21,West,276,0.0,0.0,82,0.00,,,0.00,0,weatherlink.com 1.10,2013-02-03 00:01:00,
2013-02-02 18:16:00,1.4,-2.0,30.20,West,276,0.0,0.0,84,0.00,,,0.00,0,weatherlink.com 1.10,2013-02-03 00:16:00,
2013-02-02 18:30:00,1.6,-2.0,30.20,West,276,0.0,0.0,85,0.00,,,0.00,0,weatherlink.com 1.10,2013-02-03 00:30:00,
2013-02-02 18:45:00,1.8,-1.0,30.20,West,276,0.0,0.0,86,0.00,,,0.00,0,weatherlink.com 1.10,2013-02-03 00:45:00,
2013-02-02 19:00:00,2.6,0.0,30.19,West,276,0.0,0.0,87,0.00,,,0.00,0,weatherlink.com 1.10,2013-02-03 01:00:00,
2013-02-02 19:15:00,2.8,0.0,30.19,West,276,0.0,0.0,87,0.00,,,0.00,0,weatherlink.com 1.10,2013-02-03 01:15:00,
2013-02-02 19:30:00,3.7,1.0,30.19,West,276,0.0,0.0,87,0.00,,,0.00,0,weatherlink.com 1.10,2013-02-03 01:30:00,
2013-02-02 19:45:00,4.3,1.0,30.19,West,276,0.0,0.0,86,0.00,,,0.00,0,weatherlink.com 1.10,2013-02-03 01:45:00,
2013-02-02 20:01:00,4.1,0.0,30.19,West,276,0.0,0.0,83,0.00,,,0.00,0,weatherlink.com 1.10,2013-02-03 02:01:00,
2013-02-02 20:16:00,3.3,-1.0,30.18,West,276,0.0,0.0,84,0.00,,,0.00,0,weatherlink.com 1.10,2013-02-03 02:16:00,
2013-02-02 20:31:00,2.3,-2.0,30.17,West,276,0.0,0.0,83,0.00,,,0.00,0,weatherlink.com 1.10,2013-02-03 02:31:00,
2013-02-02 20:46:00,1.0,-3.0,30.16,West,276,0.0,0.0,84,0.00,,,0.00,0,weatherlink.com 1.10,2013-02-03 02:46:00,
2013-02-02 21:01:00,-0.8,-4.0,30.16,West,276,0.0,0.0,85,0.00,,,0.00,0,weatherlink.com 1.10,2013-02-03 03:01:00,
2013-02-02 21:16:00,-1.6,-5.0,30.16,West,276,0.0,0.0,87,0.00,,,0.00,0,weatherlink.com 1.10,2013-02-03 03:16:00,
2013-02-02 21:31:00,-1.9,-5.0,30.15,West,276,0.0,0.0,87,0.00,,,0.00,0,weatherlink.com 1.10,2013-02-03 03:31:00,
2013-02-02 21:46:00,-2.4,-5.0,30.15,West,276,0.0,0.0,87,0.00,,,0.00,0,weatherlink.com 1.10,2013-02-03 03:46:00,
2013-02-02 22:01:00,-2.5,-5.0,30.14,West,276,0.0,0.0,87,0.00,,,0.00,0,weatherlink.com 1.10,2013-02-03 04:01:00,
2013-02-02 22:16:00,-2.6,-5.0,30.14,West,276,0.0,1.0,88,0.00,,,0.00,0,weatherlink.com 1.10,2013-02-03 04:16:00,
2013-02-02 22:31:00,-2.2,-5.0,30.14,West,276,0.0,1.0,87,0.00,,,0.00,0,weatherlink.com 1.10,2013-02-03 04:31:00,
2013-02-02 22:46:00,-1.3,-4.0,30.13,West,276,0.0,1.0,89,0.00,,,0.00,0,weatherlink.com 1.10,2013-02-03 04:46:00,
2013-02-02 23:16:00,1.2,-1.0,30.12,West,276,0.0,1.0,89,0.00,,,0.00,0,weatherlink.com 1.10,2013-02-03 05:16:00,
2013-02-02 23:32:00,2.4,0.0,30.12,West,276,0.0,0.0,89,0.00,,,0.00,0,weatherlink.com 1.10,2013-02-03 05:32:00,
2013-02-02 23:47:00,3.6,1.0,30.12,West,276,0.0,1.0,89,0.00,,,0.00,0,weatherlink.com 1.10,2013-02-03 05:47:00,